ENF07 EBBR-EDDF

Flight info

Callsign ENF07
Flight time N/A
Altitude 23000
Route SPI T180 NIVNU T847 IMCOM IMCOM1D
Aircraft P180/L-SBDFGM3RWXY/LB1

Departure

Time 2026-05-07 20:08
Airport Brussels Airport (EBBR)

Arrival

Time N/A
Airport Frankfurt Main Airport (EDDF)
Time Latitude Longitude Altitude Speed Heading
2026-05-07 19:40 50.90226 4.47954 119 ft 0 kts 156°
2026-05-07 19:55 50.90238 4.47946 117 ft 2 kts 157°
2026-05-07 19:56 50.90253 4.47935 118 ft 2 kts 156°
2026-05-07 19:56 50.90268 4.47925 117 ft 2 kts 156°
2026-05-07 19:56 50.90283 4.47914 117 ft 2 kts 155°
2026-05-07 19:56 50.90297 4.47901 116 ft 2 kts 128°
2026-05-07 19:57 50.90300 4.47877 118 ft 2 kts 66°
2026-05-07 19:57 50.90296 4.47865 118 ft 0 kts 65°
2026-05-07 19:57 50.90297 4.47866 118 ft 0 kts 65°
2026-05-07 19:57 50.90299 4.47875 118 ft 1 kts 65°
2026-05-07 19:58 50.90300 4.47879 118 ft 0 kts 65°
2026-05-07 19:59 50.90301 4.47880 118 ft 1 kts 65°
2026-05-07 19:59 50.90304 4.47892 117 ft 2 kts 65°
2026-05-07 20:00 50.90319 4.47941 118 ft 9 kts 65°
2026-05-07 20:00 50.90351 4.48052 118 ft 13 kts 65°
2026-05-07 20:00 50.90392 4.48197 117 ft 15 kts 65°
2026-05-07 20:00 50.90441 4.48364 115 ft 19 kts 65°
2026-05-07 20:01 50.90498 4.48561 114 ft 18 kts 65°
2026-05-07 20:01 50.90544 4.48723 110 ft 16 kts 67°
2026-05-07 20:01 50.90595 4.48903 110 ft 18 kts 63°
2026-05-07 20:01 50.90647 4.49080 109 ft 19 kts 67°
2026-05-07 20:02 50.90699 4.49259 110 ft 15 kts 65°
2026-05-07 20:02 50.90744 4.49413 110 ft 16 kts 65°
2026-05-07 20:02 50.90785 4.49554 109 ft 10 kts 66°
2026-05-07 20:02 50.90824 4.49628 111 ft 11 kts 13°
2026-05-07 20:03 50.90913 4.49662 104 ft 14 kts 14°
2026-05-07 20:03 50.90965 4.49659 103 ft 2 kts 313°
2026-05-07 20:07 50.90966 4.49658 103 ft 1 kts 312°
2026-05-07 20:07 50.90981 4.49567 105 ft 12 kts 276°
2026-05-07 20:07 50.91000 4.49434 107 ft 12 kts 278°
2026-05-07 20:07 50.90993 4.49375 108 ft 0 kts 244°
2026-05-07 20:08 50.90902 4.49065 109 ft 93 kts 245°
2026-05-07 20:08 50.90600 4.48012 1000 ft 108 kts 245°
2026-05-07 20:08 50.90285 4.46925 2102 ft 118 kts 244°
2026-05-07 20:08 50.89883 4.45613 3001 ft 143 kts 243°
2026-05-07 20:09 50.89411 4.44151 4032 ft 154 kts 241°
2026-05-07 20:09 50.88899 4.42633 5119 ft 158 kts 240°
2026-05-07 20:09 50.88334 4.41037 5898 ft 182 kts 239°
2026-05-07 20:10 50.86927 4.36966 6410 ft 219 kts 248°
2026-05-07 20:10 50.86483 4.34660 6800 ft 220 kts 251°
2026-05-07 20:10 50.85940 4.32222 6954 ft 255 kts 249°
2026-05-07 20:10 50.84997 4.29683 7135 ft 277 kts 230°